Regional Weather Roundup
Issued by NWS

Home | Current Version | Previous Version | Graphics & Text | Print | Product List | Glossary On
Versions: 1 2 3 4 5 6 7 8 9 10 11 12 13 14 15 16 17 18 19 20 21 22 23 24 25 26 27 28 29 30 31 32 33 34 35 36 37 38 39 40 41 42 43 44 45 46 47 48 49 50
937
ASUS45 KBOI 222310
RWRID

IDAHO REGIONAL WEATHER ROUNDUP
NATIONAL WEATHER SERVICE BOISE ID
500 PM MDT SAT APR 22 2017

NOTE: "FAIR" INDICATES FEW OR NO CLOUDS BELOW 12000 FEET
WITH NO SIGNIFICANT WEATHER AND/OR OBSTRUCTIONS TO VISIBILITY

IDZ012-014-230000-
SOUTHWEST IDAHO


CITY           SKY/WX    TMP DP  RH WIND       PRES   REMARKS
BOISE          CLOUDY    69  29  22 SE23G29   29.89F
CALDWELL       CLOUDY    70  35  27 E24G31    29.86F
MOUNTAIN HOME  CLOUDY    69  32  25 E25G36    29.87F
$$

IDZ016-017-230000-
SOUTHCENTRAL IDAHO


CITY           SKY/WX    TMP DP  RH WIND       PRES   REMARKS
BURLEY         MOSUNNY   65  26  23 S14G21    30.00F
JEROME         PTSUNNY   65  26  23 E10       29.98F
TWIN FALLS     PTSUNNY   65  33  30 SE16      29.97F
$$

IDZ019>023-230000-
SOUTHEAST IDAHO


CITY           SKY/WX    TMP DP  RH WIND       PRES   REMARKS
IDAHO FALLS    CLOUDY    59  28  30 SW17      30.07F
POCATELLO      CLOUDY    61  29  29 S16G30    30.05F
REXBURG        SUNNY     57  30  35 SW8       30.06F
$$

IDZ006-010-011-018-031-032-230000-
CENTRAL IDAHO MOUNTAINS


CITY           SKY/WX    TMP DP  RH WIND       PRES   REMARKS
MCCALL         CLOUDY    55  25  31 SW9       29.95S
HAILEY         MOSUNNY   55  28  35 SE9       30.06F
STANLEY          N/A     50  20  30 SE12G20   30.02F
SALMON         CLOUDY    64  25  22 SW16      29.89F
CHALLIS        PTSUNNY   59  22  24 SE20G31   29.95F
$$

IDZ002-004-006-007-026-230000-
NORTHERN IDAHO


CITY           SKY/WX    TMP DP  RH WIND       PRES   REMARKS
LEWISTON       CLOUDY    71  36  27 SW13      29.82S
LOWELL           N/A     69  34  27 VRB6      29.83R
COEUR D`ALENE  CLOUDY    64  34  32 S14       29.86S
MULLAN PASS    CLOUDY    47  23  38 VRB5      29.94S
$$




USA.gov is the U.S. government's official web portal to all federal, state and local government web resources and services.